This demonstration page uses our WeatherBlox Daily Observations layout. Learn more.

Left ArrowRight Arrow

39.01783, -85.05884

Hourly Observations for March 10, 2020

Temp ( °F °C ) Dew Point ( °F °C ) Humidity (%) Winds ( mph kmh ) Pressure ( in mb ) Visibility ( mi km ) Precip ( " mm )
12:52 am 00:52 Cloudy 58 14.4 46 7.8 65 65 S 17 28 30.07 1018 10 16 0.00 0.00
1:52 am 01:52 Cloudy with Light Rain 59 15 47 8.3 64 64 SSW 18 30 30.04 1017 9 14 0.00 0.00
2:52 am 02:52 Cloudy with Light Rain 56 13.3 50 10 81 81 SSW 15 24 30.04 1017 7 11 0.05 1.27
3:52 am 03:52 Cloudy with Light Rain 55 12.8 51 10.6 87 87 SSW 15 24 30.02 1017 10 16 0.03 0.76
4:04 am 04:04 Cloudy 55 12.8 50 10 83 83 SSW 16 26 30.03 1017 10 16 0.00 0.00
4:42 am 04:42 Cloudy 56 13.3 50 10 81 81 SSW 15 24 30.01 1016 10 16 0.00 0.00
4:52 am 04:52 Cloudy 56 13.3 50 10 81 81 SSW 18 30 29.99 1016 10 16 0.00 0.00
5:52 am 05:52 Cloudy with Rain 55 12.8 51 10.6 87 87 SSW 13 20 29.99 1016 4 6 0.01 0.25
6:34 am 06:34 Cloudy with Light Rain 54 12.2 51 10.6 90 90 SW 10 17 30.02 1017 4 6 0.14 3.56
6:52 am 06:52 Cloudy with Light Rain 55 12.8 51 10.6 87 87 WSW 10 17 30.01 1016 6 10 0.18 4.57
7:14 am 07:14 Cloudy with Light Rain 54 12.2 52 11.1 93 93 SW 7 11 30.02 1017 5 8 0.01 0.25
7:52 am 07:52 Cloudy with Light Rain 55 12.8 52 11.1 90 90 S 12 19 29.99 1016 5 8 0.07 1.78
7:56 am 07:56 Cloudy with Light Rain 55 12.8 52 11.1 90 90 S 13 20 30.00 1016 5 8 0.01 0.25
8:10 am 08:10 Cloudy with Rain 55 12.8 52 11.1 90 90 SSW 12 19 30.00 1016 3 4 0.01 0.25
8:42 am 08:42 Cloudy with Light Rain 55 12.8 52 11.1 90 90 SW 10 17 30.00 1016 7 11 0.05 1.27
8:52 am 08:52 Cloudy with Light Rain 55 12.8 53 11.7 93 93 SSW 14 22 29.99 1016 6 10 0.05 1.27
9:41 am 09:41 Cloudy 57 13.9 54 12.2 90 90 SW 14 22 30.03 1017 8 13 0.03 0.76
9:52 am 09:52 Cloudy 57 13.9 54 12.2 90 90 WSW 16 26 30.02 1017 8 13 0.03 0.76
10:08 am 10:08 Cloudy 58 14.4 53 11.7 84 84 W 21 33 30.05 1017 10 16 0.00 0.00
10:43 am 10:43 Cloudy 57 13.9 50 10 78 78 WNW 22 35 30.08 1019 10 16 0.00 0.00
10:52 am 10:52 Cloudy 57 13.9 51 10.6 81 81 WNW 16 26 30.07 1018 10 16 0.00 0.00
11:52 am 11:52 Cloudy 53 11.7 48 8.9 83 83 WNW 18 30 30.10 1019 10 16 0.00 0.00
12:52 pm 12:52 Cloudy 54 12.2 47 8.3 77 77 NW 13 20 30.13 1020 10 16 0.00 0.00
1:52 pm 13:52 Cloudy 54 12.2 45 7.2 72 72 NW 10 17 30.14 1021 10 16 0.00 0.00
2:52 pm 14:52 Cloudy 54 12.2 45 7.2 72 72 NW 14 22 30.13 1020 10 16 0.00 0.00
3:52 pm 15:52 Cloudy 50 10 45 7.2 83 83 WNW 12 19 30.16 1021 10 16 0.00 0.00
4:50 pm 16:50 Cloudy 54 12 46 8 77 77 WNW 8 13 30.15 1021 10 16 0.00 0.00
4:52 pm 16:52 Cloudy 53 11.7 46 7.8 77 77 WNW 7 11 30.15 1021 10 16 0.00 0.00
5:52 pm 17:52 Cloudy 51 10.6 45 7.2 80 80 NW 12 19 30.16 1021 10 16 0.00 0.00
6:22 pm 18:22 Cloudy 50 10 44 6.7 80 80 NW 13 20 30.18 1022 10 16 0.00 0.00
6:52 pm 18:52 Cloudy 50 10 44 6.7 80 80 NW 12 19 30.17 1022 10 16 0.00 0.00
7:52 pm 19:52 Cloudy 49 9.4 43 6.1 80 80 NNW 12 19 30.19 1022 10 16 0.00 0.00
8:52 pm 20:52 Cloudy 48 8.9 41 5 77 77 NNW 7 11 30.21 1023 10 16 0.00 0.00
9:52 pm 21:52 Cloudy 47 8.3 40 4.4 77 77 NNW 10 17 30.22 1023 10 16 0.00 0.00
10:37 pm 22:37 Cloudy 46 7.8 40 4.4 79 79 N 9 15 30.23 1024 10 16 0.00 0.00
10:52 pm 22:52 Cloudy 46 7.8 40 4.4 79 79 NNE 10 17 30.20 1023 10 16 0.00 0.00
11:52 pm 23:52 Cloudy 45 7.2 40 4.4 83 83 N 7 11 30.21 1023 10 16 0.00 0.00

Powered by AerisWeather